[[{"header":{"parameterUnit":"m.s-1","parameterCategory":2,"la1":30.2991,"la2":30.254,"lo1":-89.0895,"lo2":-89.0444,"dy":0.0017,"dx":0.0017,"nx":28,"ny":28,"refTime":"2024-08-09T09:00:00:Z","depth":"0","parameterNumber":2,"parameterNumberName":"U-component_of_CURRENTS"},"data":[0,0,0,0,0,0,0,0,0,0,0,0,0,0,0,0,0,0,0,0,0,0,0,0,0,0,0,0,0,0,0,0,0,0,0,0,0,0,0,0,0,0,0,0,0,0,0,0,0,0,0,0,0,0,0,0,0,0,-0.1504,-0.1504,0,-0.1497,-0.1497,-0.1497,-0.1492,-0.1491,-0.1491,-0.1491,-0.1471,-0.1471,-0.1471,0,0,0,0,0,0,0,0,0,0,0,0,0,-0.1496,-0.1496,-0.1504,-0.1504,-0.1503,-0.1497,-0.1497,-0.1497,-0.1492,-0.1491,-0.1491,-0.1491,-0.1472,-0.1471,-0.1471,0,0,0,0,0,0,0,0,0,0,0,0,0,-0.1496,-0.1496,-0.1504,-0.15,-0.1499,-0.1497,-0.1497,-0.1497,-0.1492,-0.1491,-0.1491,-0.1491,-0.1472,-0.1471,-0.1471,-0.147,0,0,-0.1469,-0.1468,0,0,0,0,0,0,0,0,-0.1496,-0.1496,-0.15,-0.15,-0.1499,-0.1494,-0.1487,-0.1487,-0.1492,-0.1495,-0.1491,-0.1491,-0.1478,-0.1476,-0.1477,-0.1469,-0.1468,-0.1469,-0.1468,-0.1468,-0.1468,0,0,0,0,0,0,0,-0.1496,-0.1496,-0.1502,-0.15,-0.1499,-0.1492,-0.1492,-0.1487,-0.1488,-0.1495,-0.1494,-0.1492,-0.1477,-0.1477,-0.1476,-0.1468,-0.1469,-0.1468,-0.1468,-0.1467,-0.1508,-0.1509,0,0,0,0,0,0,-0.1496,-0.1496,-0.1502,-0.1502,-0.1496,-0.1492,-0.1493,-0.1497,-0.1488,-0.1486,-0.1493,-0.1492,-0.1479,-0.1477,-0.1475,-0.1498,-0.1468,-0.1467,-0.1467,-0.1506,-0.1508,-0.151,0,0,0,0,0,0,-0.1496,-0.1497,-0.1502,-0.1498,-0.1498,-0.1493,-0.1497,-0.1497,-0.1502,-0.1486,-0.1485,-0.1499,-0.1478,-0.1476,-0.1483,-0.1496,-0.1467,-0.1467,-0.1505,-0.1507,-0.1509,-0.1528,0,0,0,0,0,0,-0.1496,-0.1497,-0.1499,-0.1498,-0.1498,-0.1515,-0.1497,-0.1497,-0.15,-0.15,-0.1491,-0.1489,-0.1478,-0.1484,-0.1483,-0.1495,-0.1466,-0.1503,-0.1506,-0.1508,-0.1526,-0.1531,-0.1535,0,0,0,0,0,-0.1496,-0.1508,-0.1499,-0.15,-0.1501,-0.1515,-0.1516,-0.1511,-0.1501,-0.1513,-0.1505,-0.1489,-0.1501,-0.1485,-0.1482,-0.1495,-0.1501,-0.1505,-0.1508,-0.1524,-0.153,-0.1535,0,0,0,0,0,0,-0.1512,-0.1508,-0.1499,-0.151,-0.1515,-0.1515,-0.152,-0.1516,-0.1519,-0.1516,-0.15,-0.1498,-0.1514,-0.1506,-0.1489,-0.1519,-0.1502,-0.1505,-0.1515,-0.152,-0.1525,-0.1537,-0.1466,0,0,0,0,0,-0.1513,-0.1516,-0.1517,-0.1525,-0.1527,-0.1523,-0.1525,-0.1526,-0.1527,-0.1528,-0.1521,-0.1519,-0.1525,-0.1523,-0.1529,-0.1536,-0.1536,-0.1548,-0.1553,-0.1556,-0.1568,-0.1577,-0.1583,-0.152,-0.152,-0.152,0,0,-0.152,-0.1518,-0.1519,-0.1527,-0.1526,-0.1543,-0.1525,-0.1537,-0.1552,-0.1525,-0.154,-0.1535,-0.1534,-0.1548,-0.1554,-0.1541,-0.1575,-0.156,-0.1563,-0.1573,-0.1581,-0.1586,-0.1592,-0.1523,-0.1522,-0.1522,0,0,-0.1542,-0.1535,-0.1547,-0.1556,-0.1561,-0.156,-0.1567,-0.1571,-0.1573,-0.1584,-0.1575,-0.1581,-0.158,-0.1586,-0.1587,-0.1623,-0.1604,-0.1624,-0.1648,-0.1656,-0.1661,-0.1665,-0.167,-0.1675,-0.162,-0.162,-0.162,0,-0.1554,-0.1564,-0.1555,-0.1575,-0.1583,-0.1572,-0.1595,-0.1599,-0.1606,-0.1612,-0.1595,-0.161,-0.1602,-0.1626,-0.1637,-0.1632,-0.1631,-0.162,-0.166,-0.1664,-0.1668,-0.1673,-0.1677,-0.1622,-0.1622,-0.1621,-0.1621,0,-0.1585,-0.1596,-0.1607,-0.1622,-0.1634,-0.1652,-0.1657,-0.1668,-0.1659,-0.166,-0.1678,-0.1667,-0.1673,-0.1674,-0.1661,-0.1691,-0.168,-0.1666,-0.1639,-0.1675,-0.1678,-0.1683,-0.1624,-0.1623,-0.1623,-0.1622,0,0,-0.1603,-0.1624,-0.1627,-0.1637,-0.1659,-0.167,-0.1699,-0.1718,-0.1737,-0.1731,-0.175,-0.1754,-0.1738,-0.174,-0.1725,-0.1731,-0.175,-0.1708,-0.1708,-0.1703,-0.1765,-0.1821,-0.1831,-0.1735,-0.1736,-0.1736,-0.1755,0,-0.1629,-0.1662,-0.1672,-0.1707,-0.172,-0.173,-0.1758,-0.1776,-0.1781,-0.1797,-0.1784,-0.1798,-0.1765,-0.1765,-0.1764,-0.1761,-0.1763,-0.1746,-0.1742,-0.1742,-0.1778,-0.1839,-0.1768,-0.1785,-0.1759,-0.176,-0.1761,0,-0.1651,-0.1667,-0.1701,-0.1736,-0.1746,-0.177,-0.1804,-0.1829,-0.1855,-0.1859,-0.1863,-0.1854,-0.1863,-0.1825,-0.1829,-0.1816,-0.1795,-0.1787,-0.1786,-0.1838,-0.1807,-0.1748,-0.1794,-0.1746,-0.1767,-0.1767,-0.1766,0,-0.1641,-0.1687,-0.1708,-0.172,-0.1762,-0.1783,-0.1806,-0.1843,-0.1871,-0.1896,-0.1918,-0.1916,-0.1926,-0.1899,-0.1882,-0.1851,-0.189,-0.1841,-0.1872,-0.1874,-0.1817,-0.1814,-0.181,-0.1846,-0.1846,-0.1846,-0.1846,0,-0.1652,-0.1667,-0.1703,-0.1712,-0.1749,-0.1779,-0.1823,-0.1851,-0.1898,-0.1951,-0.1941,-0.1989,-0.1946,-0.1961,-0.1914,-0.1929,-0.1914,-0.1901,-0.1896,-0.1824,-0.1822,-0.1781,-0.1762,-0.1847,-0.1847,-0.1847,-0.1847,0,-0.1627,-0.1651,-0.1677,-0.1723,-0.1741,-0.1761,-0.1829,-0.1865,-0.1914,-0.1983,-0.1996,-0.2049,-0.2086,-0.2052,-0.2037,-0.1998,-0.1956,-0.199,-0.1917,-0.1905,-0.1892,-0.1878,-0.1905,-0.185,-0.2021,-0.2023,-0.2024,0,-0.1616,-0.1625,-0.1673,-0.169,-0.1709,-0.1749,-0.1787,-0.1854,-0.1909,-0.2036,-0.2077,-0.2145,-0.2202,-0.2211,-0.2166,-0.212,-0.2029,-0.2019,-0.1958,-0.1916,-0.1893,-0.1872,-0.182,-0.1871,-0.1871,-0.1871,-0.1871,0,-0.1591,-0.1606,-0.162,-0.1656,-0.1692,-0.1748,-0.1813,-0.1862,-0.1969,-0.2044,-0.2178,-0.224,-0.2301,-0.226,-0.2221,-0.2163,-0.1967,-0.2023,-0.1978,-0.1802,-0.1776,-0.1711,-0.1835,-0.1872,-0.1872,-0.1872,-0.1872,-0.1872,-0.1563,-0.1566,-0.1585,-0.1613,-0.1663,-0.1734,-0.1743,-0.1854,-0.1945,-0.2047,-0.2183,-0.2245,-0.2262,-0.2224,-0.2184,-0.2044,-0.2038,-0.1913,-0.1905,-0.1892,-0.1836,-0.1994,-0.2035,-0.2036,-0.2037,-0.2038,-0.2038,0,-0.1517,-0.1522,-0.1546,-0.1576,-0.1598,-0.165,-0.1746,-0.1746,-0.1829,-0.1977,-0.2073,-0.2159,-0.2115,-0.2088,-0.2003,-0.1914,-0.182,-0.1819,-0.1716,-0.1669,-0.1791,-0.1781,-0.1771,-0.1771,-0.1771,-0.1771,-0.1771,-0.1771,-0.1488,-0.1477,-0.1484,-0.1492,-0.1512,-0.1498,-0.1525,-0.1567,-0.1639,-0.1741,-0.1829,-0.1956,-0.1992,-0.2043,-0.1895,-0.1784,-0.167,-0.164,-0.163,-0.1658,-0.1663,-0.1668,-0.1653,-0.1616,-0.1616,-0.143,-0.1429,-0.1428]},{"header":{"parameterUnit":"m.s-1","parameterCategory":2,"la1":30.2991,"la2":30.254,"lo1":-89.0895,"lo2":-89.0444,"dy":0.0017,"dx":0.0017,"nx":28,"ny":28,"refTime":"2024-08-09T09:00:00:Z","depth":"0","parameterNumber":3,"parameterNumberName":"V-component_of_CURRENTS"},"data":[0,0,0,0,0,0,0,0,0,0,0,0,0,0,0,0,0,0,0,0,0,0,0,0,0,0,0,0,0,0,0,0,0,0,0,0,0,0,0,0,0,0,0,0,0,0,0,0,0,0,0,0,0,0,0,0,0,0,-0.0508,-0.0508,0,-0.0493,-0.0493,-0.0492,-0.0482,-0.0482,-0.0482,-0.0483,-0.0455,-0.0454,-0.0453,0,0,0,0,0,0,0,0,0,0,0,0,0,-0.0544,-0.0543,-0.0508,-0.0508,-0.0508,-0.0493,-0.0493,-0.0492,-0.0482,-0.0482,-0.0482,-0.0483,-0.0456,-0.0455,-0.0453,0,0,0,0,0,0,0,0,0,0,0,0,0,-0.0525,-0.0543,-0.0508,-0.0504,-0.0504,-0.0494,-0.0493,-0.0492,-0.0482,-0.0482,-0.0482,-0.0483,-0.0456,-0.0455,-0.0453,-0.0436,0,0,-0.0449,-0.0448,0,0,0,0,0,0,0,0,-0.0526,-0.0523,-0.0505,-0.0505,-0.0504,-0.0493,-0.0496,-0.0474,-0.0482,-0.0486,-0.0483,-0.0483,-0.0469,-0.0467,-0.0458,-0.0435,-0.0434,-0.0449,-0.0448,-0.0447,-0.0447,0,0,0,0,0,0,0,-0.0528,-0.0524,-0.0498,-0.0505,-0.0505,-0.051,-0.0507,-0.0492,-0.0472,-0.0486,-0.0486,-0.049,-0.0468,-0.0459,-0.0457,-0.0433,-0.0449,-0.0447,-0.0446,-0.0446,-0.0385,-0.0384,0,0,0,0,0,0,-0.0536,-0.0525,-0.0499,-0.0498,-0.0521,-0.0509,-0.0505,-0.0493,-0.0473,-0.0471,-0.049,-0.049,-0.0461,-0.0459,-0.0456,-0.0432,-0.0447,-0.0446,-0.0445,-0.0385,-0.0384,-0.0384,0,0,0,0,0,0,-0.0536,-0.0533,-0.05,-0.0516,-0.0512,-0.0508,-0.0494,-0.0493,-0.0488,-0.0477,-0.0474,-0.0488,-0.0461,-0.0458,-0.0437,-0.0431,-0.0445,-0.0444,-0.0386,-0.0385,-0.0384,-0.0387,0,0,0,0,0,0,-0.0537,-0.0532,-0.0522,-0.0516,-0.0512,-0.0497,-0.0494,-0.0492,-0.0492,-0.0491,-0.0474,-0.0472,-0.0462,-0.0439,-0.0435,-0.043,-0.0443,-0.0387,-0.0386,-0.0384,-0.0388,-0.0386,-0.0384,0,0,0,0,0,-0.0538,-0.0528,-0.0521,-0.0519,-0.0499,-0.0497,-0.0495,-0.0492,-0.0492,-0.0488,-0.047,-0.0473,-0.0428,-0.0437,-0.0433,-0.0427,-0.0388,-0.0386,-0.0384,-0.0388,-0.0386,-0.0384,0,0,0,0,0,0,-0.0539,-0.0526,-0.0519,-0.0504,-0.0503,-0.0497,-0.0495,-0.0493,-0.0476,-0.0476,-0.0462,-0.0457,-0.0435,-0.0428,-0.0439,-0.0404,-0.0409,-0.0406,-0.0413,-0.0411,-0.0409,-0.0423,-0.0441,0,0,0,0,0,-0.0534,-0.052,-0.0515,-0.0503,-0.0503,-0.0498,-0.0496,-0.0496,-0.0486,-0.0479,-0.0463,-0.0444,-0.0423,-0.0416,-0.0396,-0.0379,-0.0363,-0.0372,-0.037,-0.0369,-0.0376,-0.0337,-0.0333,-0.0378,-0.0378,-0.0378,0,0,-0.0533,-0.0523,-0.0516,-0.0502,-0.0498,-0.0501,-0.0497,-0.0498,-0.0499,-0.0478,-0.0463,-0.0436,-0.0416,-0.0392,-0.0382,-0.0388,-0.0345,-0.0367,-0.0366,-0.0374,-0.0335,-0.033,-0.0327,-0.0377,-0.0377,-0.0377,0,0,-0.0537,-0.0514,-0.0512,-0.0509,-0.0509,-0.0504,-0.0508,-0.05,-0.0494,-0.0477,-0.0457,-0.0427,-0.0401,-0.0379,-0.0368,-0.0345,-0.0335,-0.034,-0.0348,-0.031,-0.0306,-0.0303,-0.0272,-0.0265,-0.0344,-0.0344,-0.0344,0,-0.0537,-0.0532,-0.0513,-0.0516,-0.052,-0.0508,-0.0519,-0.0508,-0.0493,-0.0486,-0.0475,-0.0414,-0.0395,-0.0364,-0.0355,-0.0342,-0.0322,-0.036,-0.0309,-0.0305,-0.0301,-0.027,-0.0264,-0.0344,-0.0344,-0.0344,-0.0344,0,-0.0548,-0.0545,-0.0545,-0.054,-0.0536,-0.0544,-0.0534,-0.0524,-0.0511,-0.0499,-0.0461,-0.0416,-0.0384,-0.0367,-0.0357,-0.0321,-0.0314,-0.0308,-0.0317,-0.0297,-0.0265,-0.0258,-0.0344,-0.0344,-0.0344,-0.0344,0,0,-0.0546,-0.0553,-0.0553,-0.0565,-0.0553,-0.0558,-0.0549,-0.0543,-0.0544,-0.0501,-0.0488,-0.043,-0.0402,-0.0385,-0.0354,-0.032,-0.0272,-0.0309,-0.0307,-0.0285,-0.019,-0.0154,-0.0143,-0.0256,-0.0255,-0.0254,-0.0177,0,-0.0564,-0.0589,-0.0577,-0.0598,-0.0613,-0.0594,-0.0589,-0.0577,-0.0555,-0.0534,-0.0478,-0.0444,-0.0411,-0.0387,-0.0347,-0.0289,-0.0254,-0.0294,-0.0208,-0.0206,-0.0181,-0.0133,-0.0126,-0.0054,-0.017,-0.0168,-0.0168,0,-0.0581,-0.0597,-0.0629,-0.0642,-0.0645,-0.0648,-0.0642,-0.0634,-0.0597,-0.0576,-0.0525,-0.0481,-0.0413,-0.039,-0.0278,-0.0305,-0.0254,-0.0207,-0.0203,-0.0167,-0.0156,-0.0092,-0.0036,0.0074,-0.0156,-0.0157,-0.0158,0,-0.0612,-0.0631,-0.0663,-0.0668,-0.0676,-0.068,-0.0675,-0.0649,-0.0647,-0.0595,-0.0578,-0.0494,-0.0442,-0.0361,-0.0256,-0.0268,-0.0136,-0.014,-0.0058,-0.0056,-0.0032,-0.0029,0.0134,-0.0069,-0.007,-0.007,-0.007,0,-0.0639,-0.0663,-0.0684,-0.0704,-0.0735,-0.0716,-0.0732,-0.0713,-0.0684,-0.0684,-0.0598,-0.0564,-0.0432,-0.0341,-0.0259,-0.0124,-0.0132,-0.0049,-0.0027,-0.0031,-0.0029,0.0081,0.0125,-0.0067,-0.0067,-0.0068,-0.0069,0,-0.067,-0.0684,-0.0727,-0.0749,-0.0756,-0.0776,-0.0779,-0.0794,-0.0744,-0.0736,-0.0716,-0.0607,-0.0474,-0.0339,-0.0195,-0.0119,0.0069,0.004,0.0026,0.0046,0.0219,0.026,0.0449,0.0488,0.0142,0.0143,0.0145,0,-0.0684,-0.0716,-0.0768,-0.0801,-0.0814,-0.0837,-0.0863,-0.0833,-0.0845,-0.0766,-0.077,-0.0626,-0.0545,-0.0295,-0.011,0.0067,0.014,0.0164,0.0146,0.0247,0.031,0.0351,0.0372,0.0177,0.0179,0.018,0.0181,0,-0.0716,-0.0744,-0.0783,-0.0863,-0.0904,-0.0949,-0.0973,-0.0989,-0.0952,-0.0928,-0.087,-0.0789,-0.0512,-0.0283,-0.0018,0.0081,0.0251,0.0193,0.0307,0.0367,0.0413,0.0454,0.0102,0.0191,0.019,0.0189,0.0189,0.0188,-0.0733,-0.0779,-0.0848,-0.0921,-0.0988,-0.106,-0.1094,-0.1114,-0.1129,-0.1087,-0.0973,-0.0841,-0.0447,-0.0058,0.0078,0.0385,0.0355,0.044,0.0485,0.0521,0.0559,0.0231,0.034,0.034,0.034,0.0339,0.0339,0,-0.0749,-0.0817,-0.09,-0.1002,-0.1102,-0.1112,-0.1175,-0.1204,-0.1237,-0.115,-0.1074,-0.0685,-0.0312,0.0058,0.0529,0.0671,0.0687,0.073,0.0786,0.0792,0.0513,0.0514,0.0655,0.0655,0.0655,0.0655,0.0655,0.0655,-0.076,-0.0844,-0.0903,-0.1079,-0.1159,-0.1267,-0.1303,-0.1334,-0.1289,-0.1151,-0.095,-0.0787,-0.0211,0.0575,0.0987,0.099,0.1087,0.108,0.1136,0.094,0.0916,0.0893,0.0906,0.1127,0.1128,0.1386,0.1389,0.1391]}],[{"header":{"parameterUnit":"m.s-1","parameterCategory":2,"la1":30.2991,"la2":30.254,"lo1":-89.0895,"lo2":-89.0444,"dy":0.0017,"dx":0.0017,"nx":28,"ny":28,"refTime":"2024-08-09T09:00:00:Z","depth":"2","parameterNumber":2,"parameterNumberName":"U-component_of_CURRENTS"},"data":[0,0,0,0,0,0,0,0,0,0,0,0,0,0,0,0,0,0,0,0,0,0,0,0,0,0,0,0,0,0,0,0,0,0,0,0,0,0,0,0,0,0,0,0,0,0,0,0,0,0,0,0,0,0,0,0,0,0,-0.1495,-0.1495,0,-0.1489,-0.1489,-0.1489,-0.1482,-0.1482,-0.1482,-0.1482,-0.1465,-0.1465,-0.1465,0,0,0,0,0,0,0,0,0,0,0,0,0,-0.1487,-0.1487,-0.1495,-0.1495,-0.1495,-0.1489,-0.1489,-0.1489,-0.1482,-0.1482,-0.1482,-0.1482,-0.1465,-0.1465,-0.1465,0,0,0,0,0,0,0,0,0,0,0,0,0,-0.1487,-0.1488,-0.1495,-0.149,-0.149,-0.1489,-0.1489,-0.1489,-0.1482,-0.1482,-0.1482,-0.1482,-0.1466,-0.1465,-0.1465,-0.1466,0,0,-0.1463,-0.1463,0,0,0,0,0,0,0,0,-0.1487,-0.1488,-0.1491,-0.1491,-0.149,-0.1486,-0.148,-0.1481,-0.1482,-0.1486,-0.1482,-0.1482,-0.1471,-0.147,-0.147,-0.1465,-0.1465,-0.1463,-0.1463,-0.1463,-0.1463,0,0,0,0,0,0,0,-0.1487,-0.1488,-0.1493,-0.1491,-0.149,-0.1484,-0.1484,-0.148,-0.148,-0.1485,-0.1485,-0.1483,-0.1471,-0.1471,-0.147,-0.1464,-0.1463,-0.1463,-0.1462,-0.1462,-0.1507,-0.1508,0,0,0,0,0,0,-0.1488,-0.1488,-0.1493,-0.1493,-0.1488,-0.1484,-0.1484,-0.1488,-0.148,-0.1479,-0.1484,-0.1483,-0.1472,-0.147,-0.1469,-0.1493,-0.1463,-0.1462,-0.1462,-0.1505,-0.1507,-0.1509,0,0,0,0,0,0,-0.1488,-0.1489,-0.1494,-0.1489,-0.149,-0.1485,-0.1489,-0.1488,-0.1493,-0.1479,-0.1477,-0.149,-0.1471,-0.147,-0.1478,-0.1491,-0.1462,-0.1462,-0.1504,-0.1506,-0.1508,-0.1526,0,0,0,0,0,0,-0.1488,-0.1489,-0.1491,-0.149,-0.149,-0.1506,-0.1489,-0.1488,-0.1491,-0.1491,-0.1483,-0.1481,-0.1471,-0.1479,-0.1478,-0.149,-0.1461,-0.1502,-0.1505,-0.1507,-0.1523,-0.1528,-0.1533,0,0,0,0,0,-0.1488,-0.1499,-0.1491,-0.1491,-0.1493,-0.1507,-0.1508,-0.1503,-0.1492,-0.1504,-0.1497,-0.1482,-0.1496,-0.1479,-0.1478,-0.149,-0.1501,-0.1504,-0.1507,-0.1521,-0.1527,-0.1533,0,0,0,0,0,0,-0.1503,-0.1499,-0.149,-0.1501,-0.1507,-0.1506,-0.1512,-0.1508,-0.1511,-0.1508,-0.1493,-0.1491,-0.1508,-0.1501,-0.1484,-0.1516,-0.1499,-0.1502,-0.1511,-0.1516,-0.1521,-0.1532,-0.1461,0,0,0,0,0,-0.1504,-0.1507,-0.1508,-0.1516,-0.1519,-0.1514,-0.1517,-0.1518,-0.1519,-0.152,-0.1513,-0.1513,-0.152,-0.1519,-0.1526,-0.1534,-0.1534,-0.1547,-0.1551,-0.1555,-0.1566,-0.1576,-0.1582,-0.152,-0.152,-0.152,0,0,-0.151,-0.1509,-0.151,-0.1518,-0.1518,-0.1535,-0.1517,-0.1529,-0.1543,-0.1518,-0.1533,-0.1529,-0.1529,-0.1545,-0.1551,-0.1538,-0.1573,-0.1559,-0.1562,-0.1571,-0.158,-0.1586,-0.1591,-0.1522,-0.1521,-0.1521,0,0,-0.1532,-0.1525,-0.1537,-0.1546,-0.1552,-0.1552,-0.1558,-0.1562,-0.1564,-0.1576,-0.1568,-0.1576,-0.1576,-0.1583,-0.1585,-0.1622,-0.1602,-0.1623,-0.1645,-0.1654,-0.1659,-0.1663,-0.1668,-0.1672,-0.1618,-0.1619,-0.1619,0,-0.1543,-0.1553,-0.1545,-0.1565,-0.1573,-0.1563,-0.1586,-0.1591,-0.1598,-0.1604,-0.1587,-0.1604,-0.1598,-0.1623,-0.1635,-0.1631,-0.1629,-0.1617,-0.1658,-0.1663,-0.1667,-0.167,-0.1675,-0.162,-0.162,-0.1619,-0.1619,0,-0.1573,-0.1584,-0.1595,-0.1611,-0.1623,-0.1641,-0.1647,-0.1658,-0.165,-0.1651,-0.167,-0.1661,-0.1668,-0.1671,-0.1659,-0.169,-0.1677,-0.1665,-0.1638,-0.1674,-0.1676,-0.168,-0.1622,-0.1621,-0.1621,-0.162,0,0,-0.1589,-0.1612,-0.1615,-0.1625,-0.1648,-0.1659,-0.1688,-0.1708,-0.1726,-0.1721,-0.174,-0.1747,-0.1731,-0.1735,-0.1721,-0.1728,-0.1747,-0.1705,-0.1705,-0.1699,-0.1763,-0.1803,-0.1812,-0.1733,-0.1734,-0.1735,-0.1751,0,-0.1614,-0.1648,-0.1659,-0.1693,-0.1707,-0.1717,-0.1746,-0.1764,-0.1769,-0.1786,-0.1774,-0.1789,-0.1758,-0.1758,-0.1758,-0.1758,-0.1761,-0.1744,-0.174,-0.174,-0.1763,-0.182,-0.1643,-0.1648,-0.1755,-0.1756,-0.1757,0,-0.1636,-0.1652,-0.1686,-0.1721,-0.1731,-0.1755,-0.1789,-0.1815,-0.1841,-0.1846,-0.185,-0.1842,-0.1852,-0.1816,-0.1822,-0.1809,-0.179,-0.1783,-0.1783,-0.1821,-0.179,-0.1633,-0.1652,-0.1764,-0.1763,-0.1763,-0.1762,0,-0.1624,-0.167,-0.169,-0.1703,-0.1746,-0.1767,-0.179,-0.1827,-0.1856,-0.188,-0.1903,-0.1902,-0.1912,-0.1887,-0.1873,-0.1843,-0.1884,-0.1836,-0.1856,-0.1857,-0.171,-0.1699,-0.1844,-0.1844,-0.1844,-0.1844,-0.1844,0,-0.1633,-0.1648,-0.1684,-0.1693,-0.173,-0.1761,-0.1804,-0.1833,-0.188,-0.1933,-0.1924,-0.1972,-0.1932,-0.1948,-0.1904,-0.1914,-0.1906,-0.1883,-0.1876,-0.1714,-0.1704,-0.1804,-0.1799,-0.1845,-0.1845,-0.1844,-0.1844,0,-0.1607,-0.1631,-0.1656,-0.1703,-0.172,-0.174,-0.1808,-0.1844,-0.1894,-0.1963,-0.1975,-0.203,-0.2067,-0.2035,-0.2024,-0.1979,-0.1966,-0.1966,-0.1788,-0.1763,-0.1914,-0.191,-0.1976,-0.1978,-0.1979,-0.1981,-0.1982,0,-0.1594,-0.1603,-0.1651,-0.1667,-0.1686,-0.1726,-0.1763,-0.1832,-0.1886,-0.2015,-0.2055,-0.2124,-0.2175,-0.2179,-0.2102,-0.2044,-0.2046,-0.1864,-0.1788,-0.1947,-0.1933,-0.1927,-0.1921,-0.1579,-0.1577,-0.1575,-0.1574,0,-0.1566,-0.1581,-0.1596,-0.1631,-0.1667,-0.1723,-0.1788,-0.1836,-0.1944,-0.2016,-0.2149,-0.2205,-0.2234,-0.2124,-0.2065,-0.1991,-0.1857,-0.183,-0.203,-0.1605,-0.1583,-0.1567,-0.1571,-0.1557,-0.1559,-0.156,-0.1561,-0.1561,-0.1532,-0.1537,-0.1556,-0.1581,-0.1635,-0.1707,-0.1708,-0.1812,-0.1898,-0.1966,-0.2112,-0.2115,-0.2087,-0.193,-0.1842,-0.1742,-0.1855,-0.171,-0.171,-0.1713,-0.1697,-0.1683,-0.167,-0.1672,-0.1674,-0.1676,-0.1677,0,-0.1464,-0.1479,-0.1508,-0.1538,-0.1559,-0.1616,-0.1708,-0.1678,-0.1739,-0.1854,-0.1911,-0.1748,-0.1691,-0.1667,-0.151,-0.1489,-0.1395,-0.1404,-0.1259,-0.1279,-0.1295,-0.1251,-0.1109,-0.1107,-0.1106,-0.1104,0,0,-0.1421,-0.1409,-0.1424,-0.1432,-0.1458,-0.1436,-0.1453,-0.1458,-0.1495,-0.1506,-0.1512,-0.1586,-0.1652,-0.1376,-0.1307,-0.1203,-0.1218,-0.1136,-0.1593,-0.1444,-0.1458,-0.1478,-0.1436,0,0,0,0,0]},{"header":{"parameterUnit":"m.s-1","parameterCategory":2,"la1":30.2991,"la2":30.254,"lo1":-89.0895,"lo2":-89.0444,"dy":0.0017,"dx":0.0017,"nx":28,"ny":28,"refTime":"2024-08-09T09:00:00:Z","depth":"2","parameterNumber":3,"parameterNumberName":"V-component_of_CURRENTS"},"data":[0,0,0,0,0,0,0,0,0,0,0,0,0,0,0,0,0,0,0,0,0,0,0,0,0,0,0,0,0,0,0,0,0,0,0,0,0,0,0,0,0,0,0,0,0,0,0,0,0,0,0,0,0,0,0,0,0,0,-0.0392,-0.0393,0,-0.0379,-0.0378,-0.0378,-0.0364,-0.0364,-0.0364,-0.0364,-0.0334,-0.0333,-0.0332,0,0,0,0,0,0,0,0,0,0,0,0,0,-0.0419,-0.0418,-0.0392,-0.0393,-0.0393,-0.0379,-0.0378,-0.0378,-0.0364,-0.0364,-0.0364,-0.0364,-0.0334,-0.0333,-0.0332,0,0,0,0,0,0,0,0,0,0,0,0,0,-0.0403,-0.0418,-0.0392,-0.0387,-0.0387,-0.0379,-0.0378,-0.0377,-0.0363,-0.0364,-0.0364,-0.0364,-0.0334,-0.0333,-0.0332,-0.0316,0,0,-0.0327,-0.0326,0,0,0,0,0,0,0,0,-0.0404,-0.0401,-0.0388,-0.0388,-0.0387,-0.0377,-0.0377,-0.0358,-0.0363,-0.0368,-0.0364,-0.0364,-0.0349,-0.0347,-0.0337,-0.0315,-0.0314,-0.0327,-0.0326,-0.0325,-0.0325,0,0,0,0,0,0,0,-0.0405,-0.0402,-0.0383,-0.0388,-0.0388,-0.0391,-0.0388,-0.0373,-0.0353,-0.0367,-0.0367,-0.0373,-0.0348,-0.0339,-0.0337,-0.0313,-0.0327,-0.0326,-0.0325,-0.0324,-0.0267,-0.0267,0,0,0,0,0,0,-0.0414,-0.0403,-0.0383,-0.0383,-0.0401,-0.039,-0.0387,-0.0376,-0.0354,-0.0352,-0.0373,-0.0372,-0.0341,-0.0338,-0.0336,-0.0315,-0.0325,-0.0324,-0.0323,-0.0268,-0.0267,-0.0266,0,0,0,0,0,0,-0.0414,-0.0412,-0.0384,-0.0397,-0.0394,-0.039,-0.0378,-0.0376,-0.0372,-0.0359,-0.0356,-0.0372,-0.0341,-0.0338,-0.0317,-0.0314,-0.0323,-0.0322,-0.0268,-0.0268,-0.0267,-0.0276,0,0,0,0,0,0,-0.0415,-0.0411,-0.0403,-0.0397,-0.0394,-0.0383,-0.0378,-0.0376,-0.0377,-0.0376,-0.0357,-0.0354,-0.0341,-0.032,-0.0316,-0.0312,-0.0321,-0.0269,-0.0268,-0.0267,-0.0276,-0.0275,-0.0275,0,0,0,0,0,-0.0415,-0.0409,-0.0402,-0.0401,-0.0383,-0.0384,-0.0382,-0.0377,-0.0376,-0.0374,-0.0355,-0.0355,-0.031,-0.0318,-0.0314,-0.031,-0.027,-0.0268,-0.0267,-0.0277,-0.0276,-0.0275,0,0,0,0,0,0,-0.0418,-0.0407,-0.04,-0.039,-0.0389,-0.0383,-0.0382,-0.038,-0.0363,-0.0362,-0.0346,-0.0341,-0.032,-0.0312,-0.0321,-0.0288,-0.029,-0.0288,-0.0299,-0.0298,-0.0297,-0.0311,-0.0319,0,0,0,0,0,-0.0415,-0.0403,-0.0399,-0.0391,-0.0391,-0.0386,-0.0385,-0.0385,-0.0374,-0.0367,-0.035,-0.0331,-0.0309,-0.0303,-0.0281,-0.0267,-0.025,-0.0261,-0.026,-0.0259,-0.0266,-0.023,-0.0227,-0.0262,-0.0262,-0.0262,0,0,-0.0416,-0.0407,-0.0402,-0.0391,-0.0387,-0.0391,-0.0385,-0.0388,-0.039,-0.0366,-0.0352,-0.0325,-0.0303,-0.0281,-0.0272,-0.0276,-0.0239,-0.0258,-0.0257,-0.0265,-0.0229,-0.0225,-0.0222,-0.0261,-0.0261,-0.0261,0,0,-0.0423,-0.0403,-0.0403,-0.0401,-0.0402,-0.0397,-0.0401,-0.0394,-0.0388,-0.0373,-0.0351,-0.0322,-0.0296,-0.0274,-0.0262,-0.0245,-0.0232,-0.0239,-0.0251,-0.0216,-0.0213,-0.021,-0.018,-0.0174,-0.0244,-0.0244,-0.0244,0,-0.0424,-0.0423,-0.0405,-0.0409,-0.0414,-0.0402,-0.0414,-0.0404,-0.0389,-0.0384,-0.0372,-0.0312,-0.0293,-0.0264,-0.0257,-0.0244,-0.0224,-0.0259,-0.0216,-0.0213,-0.021,-0.0179,-0.0173,-0.0244,-0.0244,-0.0244,-0.0244,0,-0.0439,-0.0439,-0.0441,-0.0437,-0.0435,-0.0444,-0.0434,-0.0426,-0.0414,-0.0402,-0.0367,-0.0322,-0.0291,-0.0274,-0.0263,-0.0231,-0.0223,-0.0215,-0.0222,-0.0207,-0.0175,-0.0169,-0.0244,-0.0244,-0.0244,-0.0244,0,0,-0.044,-0.045,-0.0451,-0.0464,-0.0453,-0.046,-0.0453,-0.045,-0.0451,-0.0411,-0.04,-0.0345,-0.0316,-0.03,-0.0267,-0.0236,-0.0193,-0.0223,-0.0221,-0.0199,-0.0116,-0.0074,-0.0062,-0.0178,-0.0177,-0.0176,-0.0101,0,-0.046,-0.0488,-0.0478,-0.0501,-0.0518,-0.05,-0.0497,-0.0487,-0.0466,-0.0448,-0.0394,-0.0362,-0.0328,-0.0304,-0.0267,-0.0209,-0.0177,-0.0215,-0.0129,-0.0127,-0.0095,-0.0054,-0.0078,-0.001,-0.0095,-0.0094,-0.0093,0,-0.048,-0.0498,-0.0533,-0.0548,-0.0552,-0.0556,-0.0553,-0.0547,-0.0513,-0.0494,-0.0445,-0.0401,-0.0338,-0.0314,-0.0206,-0.0231,-0.0181,-0.0135,-0.0131,-0.0086,-0.0071,-0.0038,0.0006,-0.0082,-0.0083,-0.0083,-0.0084,0,-0.0511,-0.0534,-0.0568,-0.0574,-0.0585,-0.0591,-0.0586,-0.0564,-0.0563,-0.0515,-0.0498,-0.0419,-0.0368,-0.029,-0.0185,-0.0197,-0.0069,-0.0074,0.0012,0.0015,0.0014,0.0016,-0.0008,-0.0008,-0.0008,-0.0008,-0.0009,0,-0.054,-0.0565,-0.0589,-0.061,-0.0643,-0.0626,-0.0645,-0.0628,-0.0602,-0.0603,-0.052,-0.0486,-0.036,-0.027,-0.0189,-0.0054,-0.0066,0.002,0.0044,0.0012,0.0013,-0.004,-0.0045,-0.0006,-0.0006,-0.0007,-0.0007,0,-0.057,-0.0587,-0.0631,-0.0656,-0.0664,-0.0685,-0.0692,-0.0708,-0.066,-0.0654,-0.0635,-0.0528,-0.0395,-0.0263,-0.0123,-0.0049,0.0066,0.011,0.0067,0.0085,0.0122,0.0116,0.0209,0.0212,0.0213,0.0215,0.0216,0,-0.0583,-0.0617,-0.0672,-0.0706,-0.072,-0.0746,-0.0771,-0.0745,-0.0757,-0.0681,-0.0684,-0.0541,-0.0456,-0.0209,-0.0036,0.0135,0.0126,0.0208,0.0184,0.0134,0.0147,0.0138,0.0129,0.0177,0.0178,0.0179,0.0179,0,-0.0612,-0.0643,-0.0683,-0.0764,-0.0807,-0.0854,-0.0878,-0.0894,-0.086,-0.0834,-0.0774,-0.0691,-0.0424,-0.0213,0.0046,0.0136,0.0183,0.023,0.0199,0.0129,0.0111,0.0121,0.0113,0.0186,0.0186,0.0185,0.0185,0.0184,-0.0624,-0.0672,-0.0743,-0.0815,-0.0887,-0.096,-0.0988,-0.1006,-0.1017,-0.0961,-0.0861,-0.0712,-0.0464,-0.0101,0.0095,0.0279,0.0255,0.0286,0.028,0.0275,0.0261,0.0248,0.0346,0.0346,0.0346,0.0346,0.0346,0,-0.0623,-0.0698,-0.0785,-0.0888,-0.0986,-0.1005,-0.1065,-0.1075,-0.1091,-0.1004,-0.0919,-0.0662,-0.0386,-0.012,0.0174,0.0343,0.0316,0.0373,0.0303,0.0296,0.0289,0.0274,0.0363,0.0364,0.0364,0.0365,0,0,-0.0626,-0.0707,-0.0771,-0.0941,-0.1028,-0.113,-0.1159,-0.1166,-0.111,-0.1037,-0.0914,-0.0716,-0.0391,-0.0175,0.0061,0.0223,0.0209,0.0235,0.02,0.0083,0.0074,0.0218,0.0183,0,0,0,0,0]}],[{"header":{"parameterUnit":"m.s-1","parameterCategory":2,"la1":30.2991,"la2":30.254,"lo1":-89.0895,"lo2":-89.0444,"dy":0.0017,"dx":0.0017,"nx":28,"ny":28,"refTime":"2024-08-09T09:00:00:Z","depth":"4","parameterNumber":2,"parameterNumberName":"U-component_of_CURRENTS"},"data":[0,0,0,0,0,0,0,0,0,0,0,0,0,0,0,0,0,0,0,0,0,0,0,0,0,0,0,0,0,0,0,0,0,0,0,0,0,0,0,0,0,0,0,0,0,0,0,0,0,0,0,0,0,0,0,0,0,0,-0.0829,-0.0829,0,-0.0867,-0.0867,-0.0868,-0.0892,-0.0891,-0.0891,-0.0891,-0.1093,-0.1099,-0.1104,0,0,0,0,0,0,0,0,0,0,0,0,0,-0.0827,-0.0827,-0.0829,-0.0829,-0.0829,-0.0867,-0.0867,-0.0868,-0.0892,-0.0891,-0.0891,-0.0891,-0.1092,-0.1098,-0.1105,0,0,0,0,0,0,0,0,0,0,0,0,0,-0.0846,-0.0827,-0.0829,-0.0842,-0.0844,-0.0866,-0.0868,-0.0869,-0.0892,-0.0891,-0.0891,-0.0891,-0.1089,-0.1098,-0.1106,-0.1164,0,0,-0.1131,-0.1135,0,0,0,0,0,0,0,0,-0.0845,-0.0847,-0.084,-0.0841,-0.0843,-0.0871,-0.0941,-0.0974,-0.0892,-0.0877,-0.0891,-0.0891,-0.1032,-0.1045,-0.1056,-0.1173,-0.1182,-0.1132,-0.1137,-0.1141,-0.1143,0,0,0,0,0,0,0,-0.0844,-0.0845,-0.0847,-0.084,-0.0842,-0.0864,-0.0866,-0.0947,-0.0962,-0.0878,-0.0879,-0.0878,-0.1035,-0.1048,-0.1061,-0.1185,-0.1132,-0.1139,-0.1145,-0.1148,-0.1492,-0.1496,0,0,0,0,0,0,-0.0829,-0.0844,-0.0846,-0.0848,-0.0839,-0.0864,-0.0867,-0.0865,-0.0957,-0.0969,-0.0878,-0.0879,-0.1033,-0.1051,-0.1069,-0.1319,-0.1141,-0.1149,-0.1154,-0.1488,-0.1493,-0.1497,0,0,0,0,0,0,-0.0829,-0.0829,-0.0844,-0.0844,-0.0847,-0.0863,-0.0862,-0.0866,-0.0916,-0.0955,-0.097,-0.0927,-0.1034,-0.1057,-0.1206,-0.132,-0.1152,-0.116,-0.1483,-0.149,-0.1495,-0.1707,0,0,0,0,0,0,-0.0829,-0.0829,-0.0848,-0.0843,-0.0846,-0.0851,-0.0862,-0.0867,-0.0911,-0.0914,-0.1002,-0.1017,-0.1035,-0.1194,-0.1215,-0.1328,-0.1167,-0.1478,-0.1486,-0.1493,-0.1695,-0.1719,-0.1741,0,0,0,0,0,-0.0829,-0.0846,-0.0849,-0.0851,-0.0864,-0.0851,-0.0855,-0.0868,-0.0914,-0.0919,-0.1033,-0.1017,-0.1256,-0.1206,-0.1228,-0.1347,-0.1474,-0.1484,-0.1493,-0.1684,-0.1715,-0.174,0,0,0,0,0,0,-0.0851,-0.085,-0.0853,-0.0868,-0.0857,-0.0853,-0.0891,-0.09,-0.099,-0.1054,-0.1087,-0.1111,-0.1302,-0.1279,-0.1221,-0.1463,-0.1356,-0.1371,-0.1494,-0.1523,-0.1546,-0.1553,-0.1174,0,0,0,0,0,-0.0864,-0.0883,-0.0865,-0.0879,-0.0895,-0.0909,-0.0924,-0.094,-0.1002,-0.1042,-0.1126,-0.123,-0.135,-0.1398,-0.1499,-0.162,-0.1563,-0.1702,-0.1725,-0.1745,-0.1764,-0.1742,-0.1764,-0.1528,-0.1528,-0.1528,0,0,-0.0881,-0.0879,-0.0894,-0.0886,-0.0911,-0.0935,-0.092,-0.0973,-0.1033,-0.106,-0.1238,-0.1347,-0.1411,-0.1578,-0.1653,-0.1573,-0.1789,-0.1756,-0.1774,-0.1782,-0.1754,-0.1776,-0.1796,-0.1534,-0.1533,-0.1532,0,0,-0.0905,-0.093,-0.0954,-0.0955,-0.0987,-0.1001,-0.1023,-0.1081,-0.1154,-0.1304,-0.1383,-0.1553,-0.1692,-0.1779,-0.183,-0.2029,-0.1942,-0.2057,-0.2156,-0.2136,-0.2154,-0.217,-0.2149,-0.2161,-0.203,-0.203,-0.2031,0,-0.0919,-0.0947,-0.0955,-0.0974,-0.0995,-0.1037,-0.1072,-0.1149,-0.126,-0.1395,-0.1387,-0.1728,-0.1789,-0.2003,-0.2079,-0.2089,-0.2044,-0.2051,-0.2164,-0.2178,-0.219,-0.2165,-0.2175,-0.2042,-0.204,-0.2039,-0.2038,0,-0.0941,-0.0986,-0.1013,-0.1053,-0.107,-0.1122,-0.1195,-0.1306,-0.1433,-0.1565,-0.1855,-0.1954,-0.213,-0.2193,-0.2205,-0.2365,-0.2298,-0.2225,-0.2089,-0.2226,-0.2191,-0.2198,-0.2058,-0.2054,-0.205,-0.2048,0,0,-0.0932,-0.1009,-0.1031,-0.1051,-0.1132,-0.1133,-0.1295,-0.1462,-0.1612,-0.1823,-0.2033,-0.2289,-0.24,-0.2459,-0.2504,-0.2504,-0.2576,-0.2404,-0.2398,-0.2378,-0.2526,-0.2233,-0.2211,-0.2503,-0.2505,-0.2506,-0.2474,0,-0.0957,-0.0988,-0.1046,-0.1113,-0.1136,-0.1238,-0.137,-0.1554,-0.1735,-0.1967,-0.2208,-0.244,-0.2475,-0.2566,-0.26,-0.2583,-0.26,-0.2591,-0.2402,-0.2397,-0.2112,-0.2211,-0.2513,-0.2478,-0.2479,-0.248,-0.2481,0,-0.0967,-0.0984,-0.104,-0.114,-0.1174,-0.1245,-0.1445,-0.1587,-0.195,-0.2124,-0.2413,-0.2566,-0.2759,-0.269,-0.274,-0.2722,-0.2665,-0.2621,-0.2615,-0.2268,-0.2114,-0.2306,-0.2491,-0.2491,-0.249,-0.2489,-0.2488,0,-0.0907,-0.099,-0.1031,-0.1054,-0.118,-0.1282,-0.141,-0.1701,-0.1889,-0.2251,-0.2373,-0.266,-0.2721,-0.2752,-0.2654,-0.2712,-0.2584,-0.2633,-0.2342,-0.232,-0.2499,-0.2482,-0.2652,-0.2652,-0.2652,-0.2652,-0.2652,0,-0.0896,-0.0934,-0.1015,-0.1038,-0.1142,-0.1269,-0.1487,-0.1662,-0.1993,-0.2134,-0.2464,-0.2455,-0.2714,-0.2658,-0.2653,-0.2446,-0.2564,-0.238,-0.2291,-0.2593,-0.2587,-0.2504,-0.2487,-0.2651,-0.2651,-0.2652,-0.2652,0,-0.0846,-0.09,-0.0931,-0.1059,-0.1117,-0.121,-0.1512,-0.1653,-0.1949,-0.2081,-0.219,-0.2367,-0.2246,-0.2384,-0.2341,-0.2332,-0.2233,-0.2116,-0.2397,-0.2319,-0.2036,-0.2032,-0.1942,-0.1931,-0.1922,-0.1915,-0.1908,0,-0.0822,-0.0834,-0.0917,-0.0919,-0.0997,-0.1175,-0.1295,-0.1647,-0.1692,-0.1853,-0.1787,-0.1853,-0.1888,-0.1698,-0.1811,-0.1865,-0.1837,-0.1867,-0.2073,-0.2041,-0.1964,-0.1974,-0.1981,-0.1894,-0.1892,-0.1889,-0.1887,0,-0.0775,-0.0812,-0.0837,-0.0847,-0.0923,-0.0992,-0.1104,-0.1183,-0.141,-0.161,-0.1451,-0.1528,-0.1367,-0.1452,-0.1474,-0.148,-0.1933,-0.1776,-0.1802,-0.1997,-0.1982,-0.1917,-0.1935,-0.1856,-0.186,-0.1863,-0.1865,0,-0.0754,-0.0743,-0.077,-0.0786,-0.0805,-0.0764,-0.0892,-0.0874,-0.1046,-0.1185,-0.1002,-0.1079,-0.1165,-0.1215,-0.1143,-0.1227,-0.134,-0.1462,-0.1508,-0.1544,-0.1436,-0.1359,-0.0968,0,0,0,0,0,-0.0739,-0.0732,-0.0697,-0.0698,-0.0676,-0.0708,-0.0698,-0.0797,-0.0921,-0.0773,-0.0967,-0.0804,-0.0884,-0.09,-0.0936,-0.0998,-0.1343,-0.1038,-0.1505,-0.1682,-0.1718,-0.1631,0,0,0,0,0,0,-0.0738,-0.072,-0.0696,-0.0607,-0.059,-0.0585,-0.0595,-0.0651,-0.0563,-0.0672,-0.0692,-0.0806,-0.0858,-0.0889,-0.0944,-0.0964,-0.1257,-0.1109,-0.1108,-0.1661,-0.1694,-0.1723,-0.1647,0,0,0,0,0]},{"header":{"parameterUnit":"m.s-1","parameterCategory":2,"la1":30.2991,"la2":30.254,"lo1":-89.0895,"lo2":-89.0444,"dy":0.0017,"dx":0.0017,"nx":28,"ny":28,"refTime":"2024-08-09T09:00:00:Z","depth":"4","parameterNumber":3,"parameterNumberName":"V-component_of_CURRENTS"},"data":[0,0,0,0,0,0,0,0,0,0,0,0,0,0,0,0,0,0,0,0,0,0,0,0,0,0,0,0,0,0,0,0,0,0,0,0,0,0,0,0,0,0,0,0,0,0,0,0,0,0,0,0,0,0,0,0,0,0,0.0068,0.0068,0,0.0063,0.0063,0.0063,0.0083,0.0084,0.0084,0.0085,0.0138,0.0139,0.0139,0,0,0,0,0,0,0,0,0,0,0,0,0,0.0081,0.008,0.0068,0.0068,0.0068,0.0063,0.0063,0.0063,0.0083,0.0084,0.0084,0.0085,0.0138,0.0139,0.0139,0,0,0,0,0,0,0,0,0,0,0,0,0,0.0074,0.008,0.0068,0.0079,0.008,0.0063,0.0063,0.0063,0.0082,0.0084,0.0085,0.0086,0.0137,0.0138,0.014,0.0124,0,0,0.0143,0.0143,0,0,0,0,0,0,0,0,0.0074,0.0073,0.0077,0.0078,0.0079,0.0076,0.0087,0.0087,0.0082,0.008,0.0085,0.0086,0.0123,0.0125,0.0119,0.0126,0.0129,0.0143,0.0144,0.0144,0.0144,0,0,0,0,0,0,0,0.0075,0.0073,0.0064,0.0077,0.0078,0.0079,0.008,0.0087,0.0095,0.008,0.0082,0.0084,0.0124,0.0117,0.012,0.0129,0.0143,0.0144,0.0144,0.0145,0.0188,0.0188,0,0,0,0,0,0,0.0078,0.0074,0.0064,0.0064,0.0081,0.0079,0.0079,0.0075,0.0094,0.0097,0.0083,0.0085,0.0115,0.0119,0.0122,0.0171,0.0144,0.0145,0.0146,0.0187,0.0188,0.0189,0,0,0,0,0,0,0.0078,0.0077,0.0065,0.0071,0.007,0.0077,0.0073,0.0074,0.0078,0.0095,0.01,0.0087,0.0116,0.0121,0.0142,0.0171,0.0146,0.0146,0.0187,0.0188,0.0188,0.0227,0,0,0,0,0,0,0.0079,0.0077,0.0073,0.0071,0.007,0.0046,0.0072,0.0073,0.0078,0.0081,0.0101,0.0106,0.0117,0.0141,0.0143,0.0172,0.0147,0.0186,0.0187,0.0188,0.0225,0.0229,0.0232,0,0,0,0,0,0.0079,0.0068,0.0073,0.0072,0.0064,0.0045,0.0044,0.0052,0.0077,0.0064,0.0097,0.0106,0.0149,0.0141,0.0145,0.0175,0.0186,0.0187,0.0188,0.0223,0.0228,0.0232,0,0,0,0,0,0,0.007,0.0069,0.0074,0.0063,0.0052,0.0049,0.0049,0.0055,0.0067,0.0089,0.0107,0.0113,0.0156,0.0146,0.0138,0.0188,0.0171,0.0173,0.0197,0.0201,0.0205,0.0198,0.0148,0,0,0,0,0,0.0066,0.0061,0.0054,0.0045,0.0046,0.005,0.0047,0.0054,0.0066,0.0072,0.0091,0.012,0.0158,0.0164,0.0191,0.0199,0.0196,0.0221,0.0225,0.0228,0.0224,0.0214,0.0216,0.0192,0.0192,0.0192,0,0,0.0062,0.0061,0.0059,0.0044,0.0048,0.0026,0.0051,0.0052,0.0037,0.0078,0.0082,0.0141,0.0168,0.0201,0.0216,0.0195,0.0242,0.0229,0.0232,0.0226,0.0215,0.0217,0.0219,0.0193,0.0193,0.0193,0,0,0.0049,0.0053,0.0044,0.0026,0.0027,0.0024,0.0025,0.003,0.0037,0.0047,0.0099,0.0158,0.0183,0.0215,0.0235,0.0262,0.0275,0.0287,0.0284,0.0275,0.0277,0.0278,0.0315,0.0319,0.0271,0.0271,0.0271,0,0.0043,0.0025,0.0036,0.0013,-0.0008,0.0021,-0.001,-0.0005,0.0007,0.0029,0.005,0.0166,0.0184,0.025,0.0269,0.0271,0.0287,0.027,0.028,0.0281,0.0282,0.0318,0.0322,0.0273,0.0273,0.0272,0.0272,0,0.0015,-0.0006,-0.0011,-0.0034,-0.0057,-0.0073,-0.0074,-0.007,-0.0036,-0.0003,0.0087,0.0147,0.0218,0.0244,0.0264,0.0307,0.0328,0.0301,0.0269,0.0286,0.0324,0.0328,0.0276,0.0275,0.0274,0.0274,0,0,0.0015,-0.0026,-0.0026,-0.0065,-0.0086,-0.0114,-0.0124,-0.0121,-0.0122,-0.0028,0.0024,0.0121,0.0218,0.0245,0.0311,0.0305,0.0337,0.0309,0.0308,0.0347,0.0363,0.0282,0.0278,0.0318,0.0318,0.0318,0.0402,0,-0.0012,-0.0066,-0.0084,-0.0154,-0.0188,-0.0195,-0.0232,-0.0213,-0.0172,-0.0109,0.0044,0.0135,0.02,0.0272,0.0289,0.0336,0.0343,0.0319,0.0339,0.034,0.0265,0.0276,0.0318,0.0404,0.0405,0.0406,0.0406,0,-0.0037,-0.0073,-0.0139,-0.0236,-0.0253,-0.0298,-0.0342,-0.0362,-0.026,-0.0198,-0.0032,0.0101,0.0237,0.025,0.0344,0.0337,0.0353,0.0367,0.0369,0.0274,0.0262,0.0374,0.0412,0.0412,0.0411,0.0411,0.0411,0,-0.0043,-0.0124,-0.0181,-0.0213,-0.0301,-0.0342,-0.038,-0.0365,-0.0363,-0.0201,-0.0133,0.0059,0.0165,0.0238,0.0317,0.0339,0.037,0.0391,0.0341,0.0339,0.0372,0.0369,0.0404,0.0403,0.0403,0.0403,0.0403,0,-0.0077,-0.0129,-0.0193,-0.0231,-0.033,-0.0373,-0.0447,-0.0442,-0.0379,-0.0349,-0.0144,-0.0078,0.0152,0.023,0.0306,0.0336,0.0363,0.0345,0.0339,0.0393,0.0392,0.0378,0.0374,0.0406,0.0406,0.0405,0.0404,0,-0.0086,-0.0118,-0.0203,-0.0296,-0.0337,-0.0398,-0.0487,-0.0517,-0.0463,-0.0402,-0.0316,-0.0149,-0.0063,0.011,0.0203,0.0278,0.0329,0.0311,0.0382,0.0379,0.0331,0.0328,0.0326,0.0323,0.0321,0.0319,0.0318,0,-0.01,-0.0134,-0.024,-0.0286,-0.0335,-0.0429,-0.0496,-0.0518,-0.0519,-0.0482,-0.0424,-0.0317,-0.0202,-0.0084,0.0049,0.0218,0.0207,0.0288,0.031,0.0321,0.0316,0.0317,0.0317,0.0314,0.0314,0.0313,0.0313,0,-0.0132,-0.0155,-0.0216,-0.0294,-0.0376,-0.0479,-0.0551,-0.0555,-0.0568,-0.0535,-0.0491,-0.0376,-0.031,-0.0144,-0.0034,0.0071,0.0289,0.0267,0.0274,0.0295,0.0307,0.0305,0.0307,0.0305,0.0306,0.0307,0.0307,0,-0.0155,-0.0192,-0.0241,-0.0331,-0.0403,-0.0477,-0.0541,-0.057,-0.0588,-0.0529,-0.0557,-0.0454,-0.0385,-0.0234,-0.015,-0.0028,0.0021,0.0113,0.0129,0.0138,0.0046,0.0031,-0.0066,0,0,0,0,0,-0.0192,-0.023,-0.0279,-0.0367,-0.0416,-0.0485,-0.055,-0.0592,-0.0623,-0.0592,-0.0559,-0.05,-0.0359,-0.0311,-0.0203,-0.0184,0.0045,-0.0053,0.0161,0.0264,0.0272,0.0185,0,0,0,0,0,0,-0.0222,-0.0261,-0.0283,-0.0355,-0.0419,-0.0503,-0.0559,-0.0591,-0.0565,-0.057,-0.0501,-0.0475,-0.0342,-0.0429,-0.0207,-0.0178,-0.0023,0.0004,0.0007,0.0259,0.0267,0.0274,0.0187,0,0,0,0,0]}]]